Weather History for LTBS - January, 2013

Change the Weather History Date:

Wednesday, January 2, 2013

  Actual Average Record
Temperature  
Mean Temperature 54 °F -  
Max Temperature 63 °F 58 °F 64 °F (1997)
Min Temperature 46 °F 41 °F 30 °F (2007)
Degree Days  
Heating Degree Days 10    
Growing Degree Days 4 (Base 50)    
Moisture  
Dew Point 47 °F    
Average Humidity 81    
Maximum Humidity 94    
Minimum Humidity 43    
Precipitation  
Precipitation 0.00 in - - ()
Sea Level Pressure  
Sea Level Pressure 30.18 in    
Wind  
Wind Speed 5 mph ()    
Max Wind Speed 8 mph    
Max Gust Speed -    
Visibility 6.2 miles    
Events      
Averages and records for this station are not official NWS values.
T = Trace of Precipitation, MM = Missing Value Source: Averaged Metar Reports

Daily Weather History Graph

Daily Weather History Graph

Search for Another Location

Airport or City:

Trip Planner

Search our weather history database for the weather conditions in past years. The results will help you decide how hot, cold, wet, or windy it might be!

Date:

Astronomy

Jan. 02, 2013 Rise Set
Actual Time 7:17 AM EET 5:00 PM EET
Civil Twilight 6:48 AM EET 5:29 PM EET
Nautical Twilight 6:16 AM EET 6:01 PM EET
Astronomical Twilight 5:45 AM EET 6:32 PM EET
Moon 10:03 PM EET (1/2) 9:57 AM EET (1/2)
Length of Visible Light 10h 40m
Length of Day
9h 42m
Waning Gibbous, 78% of the Moon is Illuminated
Jan 2
Waning Gibbous
Jan 5
Last Quarter
Jan 11
New
Jan 19
First Quarter
Jan 27
Full

Hourly Weather History & Observations

Time (EET) Temp. Windchill Dew Point Humidity Pressure Visibility Wind Dir Wind Speed Gust Speed Precip Events Conditions
12:20 AM 51.8 °F - 48.2 °F 88% 30.09 in 6.2 mi NE 5.8 mph - N/A   Mostly Cloudy
12:50 AM 51.8 °F - 48.2 °F 88% 30.09 in 6.2 mi NE 4.6 mph - N/A   Mostly Cloudy
1:20 AM 51.8 °F - 46.4 °F 82% 30.09 in 6.2 mi ENE 6.9 mph - N/A   Mostly Cloudy
1:50 AM 50.0 °F - 48.2 °F 94% 30.09 in 6.2 mi East 6.9 mph - N/A   Mostly Cloudy
2:00 AM 50 °F - 48 °F 89% 30.11 in 6 mi East 6.9 mph - -   Partly Cloudy
2:20 AM 50.0 °F - 48.2 °F 94% 30.09 in 6.2 mi NE 5.8 mph - N/A   Mostly Cloudy
2:50 AM 48.2 °F - 46.4 °F 93% 30.09 in 6.2 mi NNE 4.6 mph - N/A   Mostly Cloudy
3:20 AM 50.0 °F - 48.2 °F 94% 30.09 in 6.2 mi NE 4.6 mph - N/A   Mostly Cloudy
3:50 AM 48.2 °F - 46.4 °F 93% 30.09 in 6.2 mi NE 3.5 mph - N/A   Mostly Cloudy
4:20 AM 48.2 °F - 46.4 °F 93% 30.09 in 6.2 mi NE 4.6 mph - N/A   Mostly Cloudy
4:50 AM 46.4 °F 44.3 °F 44.6 °F 93% 30.09 in 6.2 mi NE 4.6 mph - N/A   Mostly Cloudy
5:20 AM 48.2 °F - 44.6 °F 87% 30.09 in 6.2 mi East 4.6 mph - N/A   Mostly Cloudy
5:50 AM 46.4 °F 42.9 °F 44.6 °F 93% 30.09 in 6.2 mi East 6.9 mph - N/A   Mostly Cloudy
6:20 AM 46.4 °F 43.5 °F 44.6 °F 93% 30.12 in 6.2 mi NE 5.8 mph - N/A   Mostly Cloudy
6:50 AM 48.2 °F - 44.6 °F 87% 30.12 in 6.2 mi NE 6.9 mph - N/A   Mostly Cloudy
7:20 AM 48.2 °F - 44.6 °F 87% 30.12 in 6.2 mi North 4.6 mph - N/A   Mostly Cloudy
7:50 AM 48.2 °F - 44.6 °F 87% 30.15 in 6.2 mi East 6.9 mph - N/A   Mostly Cloudy
8:00 AM 49 °F - 44 °F 79% 30.16 in 6 mi East 6.9 mph - -   Partly Cloudy
8:20 AM 48.2 °F - 44.6 °F 87% 30.15 in 6.2 mi NE 5.8 mph - N/A   Mostly Cloudy
8:50 AM 50.0 °F - 46.4 °F 87% 30.15 in 6.2 mi ENE 5.8 mph - N/A   Mostly Cloudy
9:20 AM 51.8 °F - 46.4 °F 82% 30.18 in 6.2 mi NE 4.6 mph - N/A   Mostly Cloudy
9:50 AM 53.6 °F - 46.4 °F 77% 30.18 in 6.2 mi NE 6.9 mph - N/A   Mostly Cloudy
10:20 AM 57.2 °F - 48.2 °F 72% 30.18 in 6.2 mi NE 5.8 mph - N/A   Mostly Cloudy
10:50 AM 59.0 °F - 46.4 °F 63% 30.18 in 6.2 mi NNE 4.6 mph - N/A   Mostly Cloudy
11:20 AM 62.6 °F - 46.4 °F 55% 30.18 in 6.2 mi Calm Calm - N/A   Partly Cloudy
11:50 AM 62.6 °F - 48.2 °F 59% 30.18 in 6.2 mi Variable 1.2 mph - N/A   Partly Cloudy
12:20 PM 64.4 °F - 46.4 °F 52% 30.18 in 6.2 mi SSW 4.6 mph - N/A   Partly Cloudy
12:50 PM 62.6 °F - 46.4 °F 55% 30.18 in 6.2 mi SSW 5.8 mph - N/A   Partly Cloudy
1:20 PM 62.6 °F - 44.6 °F 52% 30.18 in 6.2 mi WSW 5.8 mph - N/A   Partly Cloudy
1:50 PM 62.6 °F - 48.2 °F 59% 30.18 in 6.2 mi SSW 5.8 mph - N/A   Partly Cloudy
2:00 PM 63 °F - 46 °F 43% 30.19 in 6 mi SSW 5.8 mph - -   Scattered Clouds
2:20 PM 62.6 °F - 48.2 °F 59% 30.18 in 6.2 mi SW 8.1 mph - N/A   Partly Cloudy
2:50 PM 64.4 °F - 48.2 °F 56% 30.18 in 6.2 mi SSW 5.8 mph - N/A   Partly Cloudy
3:20 PM 62.6 °F - 50.0 °F 63% 30.18 in 6.2 mi SSW 5.8 mph - N/A   Partly Cloudy
3:50 PM 62.6 °F - 48.2 °F 59% 30.21 in 6.2 mi WSW 5.8 mph - N/A   Partly Cloudy
4:20 PM 62.6 °F - 50.0 °F 63% 30.21 in 6.2 mi SSW 4.6 mph - N/A   Partly Cloudy
4:50 PM 60.8 °F - 50.0 °F 68% 30.21 in 6.2 mi SSW 3.5 mph - N/A   Partly Cloudy
5:20 PM 55.4 °F - 50.0 °F 82% 30.21 in 6.2 mi ESE 3.5 mph - N/A   Partly Cloudy
5:50 PM 55.4 °F - 51.8 °F 88% 30.24 in 6.2 mi ESE 4.6 mph - N/A   Partly Cloudy
6:20 PM 53.6 °F - 50.0 °F 88% 30.24 in 6.2 mi ENE 3.5 mph - N/A   Partly Cloudy
6:50 PM 53.6 °F - 50.0 °F 88% 30.27 in 6.2 mi NNE 4.6 mph - N/A   Partly Cloudy
7:20 PM 51.8 °F - 48.2 °F 88% 30.27 in 6.2 mi NE 4.6 mph - N/A   Partly Cloudy
7:50 PM 51.8 °F - 50.0 °F 94% 30.27 in - North 4.6 mph - N/A   Clear
8:00 PM 52 °F - 50 °F 89% 30.29 in 6 mi North 4.6 mph - -  
8:20 PM 50.0 °F - 48.2 °F 94% 30.27 in - NNE 3.5 mph - N/A   Clear
8:50 PM 50.0 °F - 48.2 °F 94% 30.27 in - East 4.6 mph - N/A   Clear
9:20 PM 50.0 °F - 48.2 °F 94% 30.27 in - ENE 4.6 mph - N/A   Clear
9:50 PM 50.0 °F - 48.2 °F 94% 30.30 in - ENE 4.6 mph - N/A   Clear
10:20 PM 50.0 °F - 48.2 °F 94% 30.30 in - ENE 5.8 mph - N/A   Clear
10:50 PM 48.2 °F - 46.4 °F 93% 30.30 in - NE 4.6 mph - N/A   Clear
11:20 PM 48.2 °F - 46.4 °F 93% 30.30 in - ENE 6.9 mph - N/A   Clear
11:50 PM 48.2 °F - 46.4 °F 93% 30.30 in - ENE 6.9 mph - N/A   Clear